Home > Weather > Campo Grande > Past weeks

Flag for Brazil Weather for the Past 2 Weeks in Campo Grande, Mato Grosso Do Sul, Brazil

Now
91 °F

Scattered clouds.


Feels Like: 97 °F
Forecast: 72 / 92 °F
Wind: 10 mph from West

Location: Campo Grande Aeroporto

Current Time: Feb 13, 2016 at 3:06:32 PM

Latest Report: Feb 13, 2016 at 2:00 PM


Visibility: N/A

Pressure: 29.92 "Hg (28.25 "Hg at 516m altitude)

Humidity: 49%

Dew point: 70 °F

Location of Campo GrandeLocation

Historic Weather in Campo Grande — Graph

°F

Campo Grande Temperature Yesterday

Maximum temperature yesterday: 90 °F (at 1:00 PM)
Minimum temperature yesterday: 72 °F (at 6:00 AM)
Average temperature yesterday: 81 °F

High & Low Weather Summary for the Past Weeks

 TemperatureHumidityPressure
High91 °F (Feb 8, 3:00 PM)100% (Jan 30, 12:00 AM)30.12 "Hg (Jan 30, 12:00 AM)
Low37 °F (Jan 30, 12:00 AM)17% (Feb 3, 4:00 PM)29.83 "Hg (Jan 29, 3:00 PM)
Average77 °F76%29.97 "Hg
* Reported Jan 29 2:00 PM — Feb 13 2:00 PM, Campo Grande, Weather by CustomWeather, © 2016

Note: Actual official high and low records may vary slightly from our data, if they occured in-between our weather recording intervals... More about our weather records

Advertising

Campo Grande Weather History for the Previous 24 Hours

 ConditionsComfort  
Time TempWeatherWind HumidityBarometerVisibility
2:00 PM
Sat, Feb 13
91 °FScattered clouds.10 mph49%29.92 "HgN/A
1:00 PM90 °FScattered clouds.10 mph52%29.92 "HgN/A
12:00 PM88 °FScattered clouds.15 mph52%29.95 "HgN/A
11:00 AM86 °FScattered clouds.13 mph59%29.95 "HgN/A
10:00 AM86 °FPassing clouds.10 mph55%29.95 "HgN/A
9:00 AM82 °FSunny.7 mph66%29.95 "Hg10 mi
8:00 AM79 °FSunny.3 mph74%29.92 "Hg10 mi
7:00 AM73 °FSunny.6 mph89%29.89 "Hg10 mi
6:00 AM73 °FClear.8 mph89%29.89 "Hg10 mi
5:00 AM73 °FClear.7 mph89%29.86 "Hg10 mi
4:00 AM73 °FClear.7 mph89%29.86 "Hg10 mi
3:00 AM73 °FClear.2 mph89%29.86 "Hg10 mi
2:00 AM73 °FClear.2 mph89%29.86 "Hg10 mi
1:00 AM73 °FClear.No wind83%29.89 "Hg10 mi
12:00 AM77 °FClear.3 mph79%29.89 "Hg10 mi
11:00 PM
Fri, Feb 12
79 °FPassing clouds.3 mph74%29.89 "HgN/A
10:00 PM81 °FPassing clouds.3 mph66%29.89 "HgN/A
9:00 PM81 °FPassing clouds.5 mph66%29.89 "HgN/A
8:00 PM81 °FPassing clouds.3 mph66%29.89 "HgN/A
7:00 PM84 °FPassing clouds.8 mph58%29.86 "HgN/A
6:00 PM88 °FPassing clouds.12 mph52%29.86 "HgN/A
5:00 PM90 °FScattered clouds.13 mph52%29.86 "HgN/A
4:00 PM90 °FScattered clouds.12 mph49%29.86 "HgN/A
3:00 PM90 °FScattered clouds.8 mph49%29.89 "HgN/A
Weather by CustomWeather, © 2016

See weather overviewHow to use our weather pages